Time,TemperatureF,DewpointF,PressureIn,WindDirection,WindDirectionDegrees,WindSpeedMPH,WindSpeedGustMPH,Humidity,HourlyPrecipIn,Conditions,Clouds,dailyrainin,SoftwareType,DateUTC
2013-02-02 00:00:00,26.4,12.0,30.36,NNW,336,0.0,4.0,54,0.00,,,0.00,Wunderground v.1.15,2013-02-02 05:00:00,
2013-02-02 00:10:00,26.3,11.9,30.36,NNW,336,0.0,4.0,54,0.00,,,0.00,Wunderground v.1.15,2013-02-02 05:10:00,
2013-02-02 00:15:00,26.2,11.8,30.36,NNW,336,0.0,4.0,54,0.00,,,0.00,Wunderground v.1.15,2013-02-02 05:15:00,
2013-02-02 00:20:00,26.2,11.8,30.37,NNW,336,0.0,4.0,54,0.00,,,0.00,Wunderground v.1.15,2013-02-02 05:20:00,
2013-02-02 00:25:00,26.1,11.7,30.38,NNW,336,0.0,4.0,54,0.00,,,0.00,Wunderground v.1.15,2013-02-02 05:25:00,
2013-02-02 00:30:00,26.1,11.7,30.37,NNW,336,0.0,4.0,54,0.00,,,0.00,Wunderground v.1.15,2013-02-02 05:30:00,
2013-02-02 00:35:00,26.1,12.1,30.37,NNW,336,0.0,4.0,55,0.00,,,0.00,Wunderground v.1.15,2013-02-02 05:35:00,
2013-02-02 00:40:00,26.1,12.9,30.37,NNW,336,0.0,4.0,57,0.00,,,0.00,Wunderground v.1.15,2013-02-02 05:40:00,
2013-02-02 00:45:00,26.0,13.2,30.37,NNW,336,0.0,4.0,58,0.00,,,0.00,Wunderground v.1.15,2013-02-02 05:45:00,
2013-02-02 00:50:00,25.9,13.1,30.37,NNW,336,0.0,4.0,58,0.00,,,0.00,Wunderground v.1.15,2013-02-02 05:50:00,
2013-02-02 01:00:00,25.7,12.9,30.38,NNW,336,0.0,4.0,58,0.00,,,0.00,Wunderground v.1.15,2013-02-02 06:00:00,
2013-02-02 01:05:00,25.7,13.7,30.37,NNW,336,0.0,4.0,60,0.00,,,0.00,Wunderground v.1.15,2013-02-02 06:05:00,
2013-02-02 01:10:00,25.6,13.6,30.37,NNW,336,0.0,4.0,60,0.00,,,0.00,Wunderground v.1.15,2013-02-02 06:10:00,
2013-02-02 01:15:00,25.6,13.6,30.37,NNW,336,0.0,4.0,60,0.00,,,0.00,Wunderground v.1.15,2013-02-02 06:15:00,
2013-02-02 01:20:00,25.5,12.8,30.37,NNW,336,0.0,4.0,58,0.00,,,0.00,Wunderground v.1.15,2013-02-02 06:20:00,
2013-02-02 01:30:00,25.4,12.7,30.37,NNW,336,0.0,4.0,58,0.00,,,0.00,Wunderground v.1.15,2013-02-02 06:30:00,
2013-02-02 01:35:00,25.3,13.0,30.37,NNW,336,0.0,4.0,59,0.00,,,0.00,Wunderground v.1.15,2013-02-02 06:35:00,
2013-02-02 01:40:00,25.2,12.9,30.37,NNW,336,0.0,4.0,59,0.00,,,0.00,Wunderground v.1.15,2013-02-02 06:40:00,
2013-02-02 01:45:00,25.2,12.9,30.37,NNW,336,0.0,4.0,59,0.00,,,0.00,Wunderground v.1.15,2013-02-02 06:45:00,
2013-02-02 01:50:00,25.1,12.8,30.37,NNW,336,0.0,4.0,59,0.00,,,0.00,Wunderground v.1.15,2013-02-02 06:50:00,
2013-02-02 01:55:00,24.9,13.0,30.37,NNW,336,0.0,4.0,60,0.00,,,0.00,Wunderground v.1.15,2013-02-02 06:55:00,
2013-02-02 02:05:00,24.8,13.6,30.37,NNW,336,0.0,4.0,62,0.00,,,0.00,Wunderground v.1.15,2013-02-02 07:05:00,
2013-02-02 02:10:00,24.7,13.9,30.37,NNW,336,0.0,4.0,63,0.00,,,0.00,Wunderground v.1.15,2013-02-02 07:10:00,
2013-02-02 02:15:00,24.6,13.8,30.37,NNW,336,0.0,4.0,63,0.00,,,0.00,Wunderground v.1.15,2013-02-02 07:15:00,
2013-02-02 02:20:00,24.5,13.7,30.37,NNW,336,0.0,4.0,63,0.00,,,0.00,Wunderground v.1.15,2013-02-02 07:20:00,
2013-02-02 02:25:00,24.4,14.0,30.36,NNW,336,0.0,4.0,64,0.00,,,0.00,Wunderground v.1.15,2013-02-02 07:25:00,
2013-02-02 02:30:00,24.4,14.0,30.37,NNW,336,0.0,4.0,64,0.00,,,0.00,Wunderground v.1.15,2013-02-02 07:30:00,
2013-02-02 02:35:00,24.3,13.9,30.37,NNW,336,0.0,4.0,64,0.00,,,0.00,Wunderground v.1.15,2013-02-02 07:35:00,
2013-02-02 02:40:00,24.2,13.4,30.37,NNW,336,0.0,4.0,63,0.00,,,0.00,Wunderground v.1.15,2013-02-02 07:40:00,
2013-02-02 02:45:00,24.1,13.3,30.38,NNW,336,0.0,4.0,63,0.00,,,0.00,Wunderground v.1.15,2013-02-02 07:45:00,
2013-02-02 02:50:00,24.0,13.2,30.37,NNW,336,0.0,4.0,63,0.00,,,0.00,Wunderground v.1.15,2013-02-02 07:50:00,
2013-02-02 02:55:00,23.9,13.1,30.37,NNW,336,0.0,4.0,63,0.00,,,0.00,Wunderground v.1.15,2013-02-02 07:55:00,
2013-02-02 03:10:00,23.5,12.7,30.37,NNW,336,0.0,4.0,63,0.00,,,0.00,Wunderground v.1.15,2013-02-02 08:10:00,
2013-02-02 03:15:00,23.4,13.0,30.37,NNW,336,0.0,4.0,64,0.00,,,0.00,Wunderground v.1.15,2013-02-02 08:15:00,
2013-02-02 03:20:00,23.3,12.2,30.37,NNW,336,0.0,4.0,62,0.00,,,0.00,Wunderground v.1.15,2013-02-02 08:20:00,
2013-02-02 03:25:00,23.1,12.0,30.38,NNW,336,0.0,4.0,62,0.00,,,0.00,Wunderground v.1.15,2013-02-02 08:25:00,
2013-02-02 03:30:00,23.0,12.6,30.38,NNW,336,0.0,4.0,64,0.00,,,0.00,Wunderground v.1.15,2013-02-02 08:30:00,
2013-02-02 03:35:00,22.9,12.9,30.38,NNW,336,0.0,4.0,65,0.00,,,0.00,Wunderground v.1.15,2013-02-02 08:35:00,
2013-02-02 03:40:00,22.9,13.6,30.39,NNW,336,0.0,4.0,67,0.00,,,0.00,Wunderground v.1.15,2013-02-02 08:40:00,
2013-02-02 03:45:00,22.9,13.2,30.38,NNW,336,0.0,4.0,66,0.00,,,0.00,Wunderground v.1.15,2013-02-02 08:45:00,
2013-02-02 03:50:00,22.8,13.5,30.38,NNW,336,0.0,4.0,67,0.00,,,0.00,Wunderground v.1.15,2013-02-02 08:50:00,
2013-02-02 03:55:00,22.8,13.8,30.38,NNW,336,0.0,4.0,68,0.00,,,0.00,Wunderground v.1.15,2013-02-02 08:55:00,
2013-02-02 04:00:00,22.7,13.4,30.38,NNW,336,0.0,4.0,67,0.00,,,0.00,Wunderground v.1.15,2013-02-02 09:00:00,
2013-02-02 04:05:00,22.6,13.3,30.38,NNW,336,0.0,4.0,67,0.00,,,0.00,Wunderground v.1.15,2013-02-02 09:05:00,
2013-02-02 04:15:00,22.5,13.2,30.38,NNW,336,0.0,4.0,67,0.00,,,0.00,Wunderground v.1.15,2013-02-02 09:15:00,
2013-02-02 04:20:00,22.4,13.1,30.38,NNW,336,0.0,4.0,67,0.00,,,0.00,Wunderground v.1.15,2013-02-02 09:20:00,
2013-02-02 04:25:00,22.3,13.0,30.38,NNW,336,0.0,4.0,67,0.00,,,0.00,Wunderground v.1.15,2013-02-02 09:25:00,
2013-02-02 04:30:00,22.2,12.6,30.38,NNW,336,0.0,4.0,66,0.00,,,0.00,Wunderground v.1.15,2013-02-02 09:30:00,
2013-02-02 04:35:00,22.2,12.9,30.38,NNW,336,0.0,4.0,67,0.00,,,0.00,Wunderground v.1.15,2013-02-02 09:35:00,
2013-02-02 04:40:00,22.1,12.8,30.38,NNW,336,0.0,4.0,67,0.00,,,0.00,Wunderground v.1.15,2013-02-02 09:40:00,
2013-02-02 04:45:00,22.0,13.0,30.38,NNW,336,0.0,4.0,68,0.00,,,0.00,Wunderground v.1.15,2013-02-02 09:45:00,
2013-02-02 04:50:00,22.0,13.0,30.38,NNW,336,0.0,4.0,68,0.00,,,0.00,Wunderground v.1.15,2013-02-02 09:50:00,
2013-02-02 04:55:00,21.9,13.0,30.38,NNW,336,0.0,4.0,68,0.00,,,0.00,Wunderground v.1.15,2013-02-02 09:55:00,
2013-02-02 05:00:00,21.9,13.0,30.38,NNW,336,0.0,4.0,68,0.00,,,0.00,Wunderground v.1.15,2013-02-02 10:00:00,
2013-02-02 05:05:00,21.8,13.2,30.38,NNW,336,0.0,4.0,69,0.00,,,0.00,Wunderground v.1.15,2013-02-02 10:05:00,
2013-02-02 05:15:00,21.8,13.2,30.38,NNW,336,0.0,4.0,69,0.00,,,0.00,Wunderground v.1.15,2013-02-02 10:15:00,
2013-02-02 05:20:00,21.6,13.0,30.38,NNW,336,0.0,4.0,69,0.00,,,0.00,Wunderground v.1.15,2013-02-02 10:20:00,
2013-02-02 05:25:00,21.6,13.0,30.38,NNW,336,0.0,4.0,69,0.00,,,0.00,Wunderground v.1.15,2013-02-02 10:25:00,
2013-02-02 05:30:00,21.6,13.3,30.38,NNW,336,0.0,4.0,70,0.00,,,0.00,Wunderground v.1.15,2013-02-02 10:30:00,
2013-02-02 05:35:00,21.6,13.0,30.38,NNW,336,0.0,4.0,69,0.00,,,0.00,Wunderground v.1.15,2013-02-02 10:35:00,
2013-02-02 05:40:00,21.5,13.2,30.38,NNW,336,0.0,4.0,70,0.00,,,0.00,Wunderground v.1.15,2013-02-02 10:40:00,
2013-02-02 05:50:00,21.4,12.8,30.38,NNW,336,0.0,4.0,69,0.00,,,0.00,Wunderground v.1.15,2013-02-02 10:50:00,
2013-02-02 05:55:00,21.4,12.8,30.38,NNW,336,0.0,4.0,69,0.00,,,0.00,Wunderground v.1.15,2013-02-02 10:55:00,
2013-02-02 06:00:00,21.3,12.4,30.38,NNW,336,0.0,4.0,68,0.00,,,0.00,Wunderground v.1.15,2013-02-02 11:00:00,
2013-02-02 06:05:00,21.3,12.7,30.38,NNW,336,0.0,4.0,69,0.00,,,0.00,Wunderground v.1.15,2013-02-02 11:05:00,
2013-02-02 06:10:00,21.3,13.0,30.38,NNW,336,0.0,4.0,70,0.00,,,0.00,Wunderground v.1.15,2013-02-02 11:10:00,
2013-02-02 06:20:00,21.3,13.0,30.38,NNW,336,0.0,4.0,70,0.00,,,0.00,Wunderground v.1.15,2013-02-02 11:20:00,
2013-02-02 06:25:00,21.3,13.4,30.38,NNW,336,0.0,4.0,71,0.00,,,0.00,Wunderground v.1.15,2013-02-02 11:25:00,
2013-02-02 06:30:00,21.3,14.0,30.38,NNW,336,0.0,4.0,73,0.00,,,0.00,Wunderground v.1.15,2013-02-02 11:30:00,
2013-02-02 06:35:00,21.3,14.0,30.38,NNW,336,0.0,4.0,73,0.00,,,0.00,Wunderground v.1.15,2013-02-02 11:35:00,
2013-02-02 06:40:00,21.2,13.9,30.38,NNW,336,0.0,4.0,73,0.00,,,0.00,Wunderground v.1.15,2013-02-02 11:40:00,
2013-02-02 06:45:00,21.1,13.5,30.38,NNW,336,0.0,4.0,72,0.00,,,0.00,Wunderground v.1.15,2013-02-02 11:45:00,
2013-02-02 06:50:00,21.1,13.5,30.38,NNW,336,0.0,4.0,72,0.00,,,0.00,Wunderground v.1.15,2013-02-02 11:50:00,
2013-02-02 06:55:00,21.1,13.5,30.39,NNW,336,0.0,4.0,72,0.00,,,0.00,Wunderground v.1.15,2013-02-02 11:55:00,
2013-02-02 07:00:00,21.1,13.8,30.39,NNW,336,0.0,4.0,73,0.00,,,0.00,Wunderground v.1.15,2013-02-02 12:00:00,
2013-02-02 07:05:00,21.1,13.8,30.39,NNW,336,0.0,4.0,73,0.00,,,0.00,Wunderground v.1.15,2013-02-02 12:05:00,
2013-02-02 07:10:00,21.1,13.5,30.39,NNW,336,0.0,4.0,72,0.00,,,0.00,Wunderground v.1.15,2013-02-02 12:10:00,
2013-02-02 07:15:00,21.1,13.5,30.39,NNW,336,0.0,4.0,72,0.00,,,0.00,Wunderground v.1.15,2013-02-02 12:15:00,
2013-02-02 07:25:00,21.1,13.8,30.40,NNW,336,0.0,4.0,73,0.00,,,0.00,Wunderground v.1.15,2013-02-02 12:25:00,
2013-02-02 07:30:00,21.1,13.8,30.39,NNW,336,0.0,4.0,73,0.00,,,0.00,Wunderground v.1.15,2013-02-02 12:30:00,
2013-02-02 07:35:00,21.1,14.1,30.40,NNW,336,0.0,4.0,74,0.00,,,0.00,Wunderground v.1.15,2013-02-02 12:35:00,
2013-02-02 07:40:00,21.1,14.1,30.40,NNW,336,0.0,4.0,74,0.00,,,0.00,Wunderground v.1.15,2013-02-02 12:40:00,
2013-02-02 07:45:00,21.1,14.1,30.40,NNW,336,0.0,4.0,74,0.00,,,0.00,Wunderground v.1.15,2013-02-02 12:45:00,
2013-02-02 07:55:00,21.1,14.1,30.40,NNW,336,0.0,4.0,74,0.00,,,0.00,Wunderground v.1.15,2013-02-02 12:55:00,
2013-02-02 08:00:00,21.1,14.4,30.40,NNW,336,0.0,4.0,75,0.00,,,0.00,Wunderground v.1.15,2013-02-02 13:00:00,
2013-02-02 08:05:00,21.1,14.4,30.40,NNW,336,0.0,4.0,75,0.00,,,0.00,Wunderground v.1.15,2013-02-02 13:05:00,
2013-02-02 08:10:00,21.2,14.5,30.40,NNW,336,0.0,4.0,75,0.00,,,0.00,Wunderground v.1.15,2013-02-02 13:10:00,
2013-02-02 08:15:00,21.4,15.0,30.41,NNW,336,0.0,4.0,76,0.00,,,0.00,Wunderground v.1.15,2013-02-02 13:15:00,
2013-02-02 08:20:00,22.8,16.4,30.41,NNW,336,0.0,4.0,76,0.00,,,0.00,Wunderground v.1.15,2013-02-02 13:20:00,
2013-02-02 08:30:00,24.2,16.8,30.41,NNW,336,0.0,4.0,73,0.00,,,0.00,Wunderground v.1.15,2013-02-02 13:30:00,
2013-02-02 08:35:00,24.6,16.2,30.41,NNW,336,0.0,4.0,70,0.00,,,0.00,Wunderground v.1.15,2013-02-02 13:35:00,
2013-02-02 08:40:00,24.8,15.7,30.41,NNW,336,0.0,4.0,68,0.00,,,0.00,Wunderground v.1.15,2013-02-02 13:40:00,
2013-02-02 08:45:00,25.0,15.2,30.41,NNW,336,0.0,4.0,66,0.00,,,0.00,Wunderground v.1.15,2013-02-02 13:45:00,
2013-02-02 08:50:00,25.2,14.7,30.41,NNW,336,0.0,4.0,64,0.00,,,0.00,Wunderground v.1.15,2013-02-02 13:50:00,
2013-02-02 09:00:00,25.7,13.7,30.41,NE,53,0.0,4.0,60,0.00,,,0.00,Wunderground v.1.15,2013-02-02 14:00:00,
2013-02-02 09:05:00,26.1,13.7,30.40,East,85,0.0,4.0,59,0.00,,,0.00,Wunderground v.1.15,2013-02-02 14:05:00,
2013-02-02 09:10:00,26.4,13.6,30.40,SE,146,0.0,4.0,58,0.00,,,0.00,Wunderground v.1.15,2013-02-02 14:10:00,
2013-02-02 09:15:00,27.2,14.0,30.40,SSW,201,0.0,4.0,57,0.00,,,0.00,Wunderground v.1.15,2013-02-02 14:15:00,
2013-02-02 09:20:00,27.5,13.8,30.40,SSW,201,0.0,4.0,56,0.00,,,0.00,Wunderground v.1.15,2013-02-02 14:20:00,
2013-02-02 09:30:00,27.7,13.6,30.39,SSW,200,0.0,4.0,55,0.00,,,0.00,Wunderground v.1.15,2013-02-02 14:30:00,
2013-02-02 09:35:00,27.8,14.1,30.40,SSW,201,0.0,4.0,56,0.00,,,0.00,Wunderground v.1.15,2013-02-02 14:35:00,
2013-02-02 09:40:00,28.0,14.3,30.40,SSW,201,0.0,4.0,56,0.00,,,0.00,Wunderground v.1.15,2013-02-02 14:40:00,
2013-02-02 09:45:00,28.1,14.0,30.39,SSW,201,0.0,4.0,55,0.00,,,0.00,Wunderground v.1.15,2013-02-02 14:45:00,
2013-02-02 09:50:00,28.3,13.8,30.39,SSW,200,0.0,4.0,54,0.00,,,0.00,Wunderground v.1.15,2013-02-02 14:50:00,
2013-02-02 09:55:00,28.5,13.1,30.39,SSW,201,0.0,4.0,52,0.00,,,0.00,Wunderground v.1.15,2013-02-02 14:55:00,
2013-02-02 10:05:00,29.0,14.0,30.39,SSW,201,0.0,4.0,53,0.00,,,0.00,Wunderground v.1.15,2013-02-02 15:05:00,
2013-02-02 10:10:00,29.2,13.7,30.39,SSW,201,0.0,4.0,52,0.00,,,0.00,Wunderground v.1.15,2013-02-02 15:10:00,
2013-02-02 10:15:00,29.4,13.5,30.39,SSW,201,0.0,4.0,51,0.00,,,0.00,Wunderground v.1.15,2013-02-02 15:15:00,
2013-02-02 10:20:00,29.7,13.8,30.39,East,79,0.0,4.0,51,0.00,,,0.00,Wunderground v.1.15,2013-02-02 15:20:00,
2013-02-02 10:25:00,29.9,13.0,30.38,East,79,0.0,4.0,49,0.00,,,0.00,Wunderground v.1.15,2013-02-02 15:25:00,
2013-02-02 10:35:00,30.6,13.2,30.38,South,190,0.0,4.0,48,0.00,,,0.00,Wunderground v.1.15,2013-02-02 15:35:00,
2013-02-02 10:40:00,31.6,13.2,30.38,WNW,285,0.0,4.0,46,0.00,,,0.00,Wunderground v.1.15,2013-02-02 15:40:00,
2013-02-02 10:45:00,31.5,13.6,30.37,ENE,73,0.0,4.0,47,0.00,,,0.00,Wunderground v.1.15,2013-02-02 15:45:00,
2013-02-02 10:50:00,31.2,12.3,30.37,NE,34,0.0,4.0,45,0.00,,,0.00,Wunderground v.1.15,2013-02-02 15:50:00,
2013-02-02 10:55:00,32.1,13.6,30.37,ENE,62,0.0,4.0,46,0.00,,,0.00,Wunderground v.1.15,2013-02-02 15:55:00,
2013-02-02 11:05:00,32.8,14.3,30.36,ENE,72,0.0,4.0,46,0.00,,,0.00,Wunderground v.1.15,2013-02-02 16:05:00,
2013-02-02 11:10:00,32.8,12.7,30.36,East,86,0.0,4.0,43,0.00,,,0.00,Wunderground v.1.15,2013-02-02 16:10:00,
2013-02-02 11:15:00,33.4,12.7,30.35,West,275,0.0,4.0,42,0.00,,,0.00,Wunderground v.1.15,2013-02-02 16:15:00,
2013-02-02 11:20:00,33.6,14.0,30.35,West,267,0.0,4.0,44,0.00,,,0.00,Wunderground v.1.15,2013-02-02 16:20:00,
2013-02-02 11:25:00,34.1,13.4,30.34,SW,235,0.0,4.0,42,0.00,,,0.00,Wunderground v.1.15,2013-02-02 16:25:00,
2013-02-02 11:30:00,34.7,13.4,30.34,ESE,114,0.0,4.0,41,0.00,,,0.00,Wunderground v.1.15,2013-02-02 16:30:00,
2013-02-02 11:40:00,35.2,14.4,30.33,ESE,105,0.0,4.0,42,0.00,,,0.00,Wunderground v.1.15,2013-02-02 16:40:00,
2013-02-02 11:45:00,35.1,14.3,30.33,East,98,0.0,4.0,42,0.00,,,0.00,Wunderground v.1.15,2013-02-02 16:45:00,
2013-02-02 11:50:00,35.7,14.3,30.32,West,265,0.0,4.0,41,0.00,,,0.00,Wunderground v.1.15,2013-02-02 16:50:00,
2013-02-02 11:55:00,36.3,14.8,30.32,South,190,0.0,4.0,41,0.00,,,0.00,Wunderground v.1.15,2013-02-02 16:55:00,
2013-02-02 12:00:00,37.3,15.7,30.31,WSW,242,0.0,4.0,41,0.00,,,0.00,Wunderground v.1.15,2013-02-02 17:00:00,
2013-02-02 12:10:00,37.2,13.9,30.31,SSW,199,0.0,4.0,38,0.00,,,0.00,Wunderground v.1.15,2013-02-02 17:10:00,
2013-02-02 12:15:00,37.8,15.0,30.30,South,169,0.0,4.0,39,0.00,,,0.00,Wunderground v.1.15,2013-02-02 17:15:00,
2013-02-02 12:20:00,38.1,14.7,30.30,South,172,0.0,4.0,38,0.00,,,0.00,Wunderground v.1.15,2013-02-02 17:20:00,
2013-02-02 12:25:00,38.4,14.4,30.29,WNW,298,0.0,4.0,37,0.00,,,0.00,Wunderground v.1.15,2013-02-02 17:25:00,
2013-02-02 12:30:00,39.1,14.4,30.28,SSW,199,0.0,4.0,36,0.00,,,0.00,Wunderground v.1.15,2013-02-02 17:30:00,
2013-02-02 12:40:00,39.0,15.5,30.28,WSW,257,0.0,4.0,38,0.00,,,0.00,Wunderground v.1.15,2013-02-02 17:40:00,
2013-02-02 12:45:00,39.9,15.7,30.28,East,86,0.0,4.0,37,0.00,,,0.00,Wunderground v.1.15,2013-02-02 17:45:00,
2013-02-02 12:50:00,40.5,15.6,30.27,South,173,0.0,4.0,36,0.00,,,0.00,Wunderground v.1.15,2013-02-02 17:50:00,
2013-02-02 12:55:00,40.7,15.1,30.26,SSW,199,0.0,4.0,35,0.00,,,0.00,Wunderground v.1.15,2013-02-02 17:55:00,
2013-02-02 13:00:00,41.4,15.1,30.26,SSW,194,1.0,1.0,34,0.00,,,0.00,Wunderground v.1.15,2013-02-02 18:00:00,
2013-02-02 13:05:00,41.6,15.3,30.25,South,169,0.0,4.0,34,0.00,,,0.00,Wunderground v.1.15,2013-02-02 18:05:00,
2013-02-02 13:10:00,41.4,15.1,30.24,South,169,0.0,4.0,34,0.00,,,0.00,Wunderground v.1.15,2013-02-02 18:10:00,
2013-02-02 13:15:00,41.8,16.1,30.24,SSE,168,0.0,4.0,35,0.00,,,0.00,Wunderground v.1.15,2013-02-02 18:15:00,
2013-02-02 13:20:00,42.0,15.6,30.23,ESE,110,1.0,4.0,34,0.00,,,0.00,Wunderground v.1.15,2013-02-02 18:20:00,
2013-02-02 13:30:00,41.9,15.5,30.22,SW,227,0.0,4.0,34,0.00,,,0.00,Wunderground v.1.15,2013-02-02 18:30:00,
2013-02-02 13:40:00,42.5,16.1,30.21,West,272,0.0,4.0,34,0.00,,,0.00,Wunderground v.1.15,2013-02-02 18:40:00,
2013-02-02 13:45:00,42.6,15.5,30.21,South,180,0.0,4.0,33,0.00,,,0.00,Wunderground v.1.15,2013-02-02 18:45:00,
2013-02-02 13:50:00,42.8,14.9,30.21,WSW,253,0.0,4.0,32,0.00,,,0.00,Wunderground v.1.15,2013-02-02 18:50:00,
2013-02-02 14:00:00,43.1,15.2,30.20,South,179,0.0,4.0,32,0.00,,,0.00,Wunderground v.1.15,2013-02-02 19:00:00,
2013-02-02 14:05:00,43.2,15.3,30.20,South,187,1.0,4.0,32,0.00,,,0.00,Wunderground v.1.15,2013-02-02 19:05:00,
2013-02-02 14:10:00,43.3,15.4,30.20,South,182,1.0,4.0,32,0.00,,,0.00,Wunderground v.1.15,2013-02-02 19:10:00,
2013-02-02 14:15:00,43.5,16.3,30.19,SSW,194,0.0,4.0,33,0.00,,,0.00,Wunderground v.1.15,2013-02-02 19:15:00,
2013-02-02 14:20:00,43.7,15.7,30.19,NNW,344,0.0,4.0,32,0.00,,,0.00,Wunderground v.1.15,2013-02-02 19:20:00,
2013-02-02 14:25:00,43.9,15.9,30.18,South,171,0.0,4.0,32,0.00,,,0.00,Wunderground v.1.15,2013-02-02 19:25:00,
2013-02-02 14:35:00,44.3,15.5,30.18,South,182,1.0,4.0,31,0.00,,,0.00,Wunderground v.1.15,2013-02-02 19:35:00,
2013-02-02 14:45:00,44.6,15.8,30.17,South,182,0.0,4.0,31,0.00,,,0.00,Wunderground v.1.15,2013-02-02 19:45:00,
2013-02-02 14:50:00,44.8,16.7,30.17,SW,230,0.0,4.0,32,0.00,,,0.00,Wunderground v.1.15,2013-02-02 19:50:00,
2013-02-02 15:00:00,45.1,16.2,30.17,South,171,0.0,4.0,31,0.00,,,0.00,Wunderground v.1.15,2013-02-02 20:00:00,
2013-02-02 15:05:00,45.3,17.1,30.17,South,183,0.0,4.0,32,0.00,,,0.00,Wunderground v.1.15,2013-02-02 20:05:00,
2013-02-02 15:10:00,45.4,16.5,30.16,South,188,0.0,4.0,31,0.00,,,0.00,Wunderground v.1.15,2013-02-02 20:10:00,
2013-02-02 15:15:00,45.6,16.7,30.16,SSE,159,0.0,4.0,31,0.00,,,0.00,Wunderground v.1.15,2013-02-02 20:15:00,
2013-02-02 15:20:00,45.8,16.8,30.15,East,79,0.0,4.0,31,0.00,,,0.00,Wunderground v.1.15,2013-02-02 20:20:00,
2013-02-02 15:25:00,45.8,16.8,30.16,SSW,192,0.0,4.0,31,0.00,,,0.00,Wunderground v.1.15,2013-02-02 20:25:00,
2013-02-02 15:30:00,45.9,16.9,30.15,South,173,0.0,4.0,31,0.00,,,0.00,Wunderground v.1.15,2013-02-02 20:30:00,
2013-02-02 15:35:00,46.0,17.0,30.15,SSE,165,1.0,4.0,31,0.00,,,0.00,Wunderground v.1.15,2013-02-02 20:35:00,
2013-02-02 15:40:00,46.0,16.3,30.15,South,174,1.0,1.0,30,0.00,,,0.00,Wunderground v.1.15,2013-02-02 20:40:00,
2013-02-02 15:50:00,46.1,16.3,30.16,SSW,205,0.0,4.0,30,0.00,,,0.00,Wunderground v.1.15,2013-02-02 20:50:00,
2013-02-02 15:55:00,46.1,17.1,30.15,SSE,167,0.0,4.0,31,0.00,,,0.00,Wunderground v.1.15,2013-02-02 20:55:00,
2013-02-02 16:00:00,46.2,17.2,30.15,SSW,194,0.0,4.0,31,0.00,,,0.00,Wunderground v.1.15,2013-02-02 21:00:00,
2013-02-02 16:05:00,46.3,17.3,30.14,SE,138,1.0,4.0,31,0.00,,,0.00,Wunderground v.1.15,2013-02-02 21:05:00,
2013-02-02 16:10:00,46.4,18.1,30.15,West,276,1.0,1.0,32,0.00,,,0.00,Wunderground v.1.15,2013-02-02 21:10:00,
2013-02-02 16:15:00,46.5,18.2,30.14,SSE,150,0.0,4.0,32,0.00,,,0.00,Wunderground v.1.15,2013-02-02 21:15:00,
2013-02-02 16:25:00,46.6,18.3,30.14,South,184,0.0,4.0,32,0.00,,,0.00,Wunderground v.1.15,2013-02-02 21:25:00,
2013-02-02 16:30:00,46.6,19.0,30.13,SSE,158,0.0,4.0,33,0.00,,,0.00,Wunderground v.1.15,2013-02-02 21:30:00,
2013-02-02 16:35:00,46.5,18.2,30.13,SSE,158,0.0,4.0,32,0.00,,,0.00,Wunderground v.1.15,2013-02-02 21:35:00,
2013-02-02 16:40:00,46.5,18.9,30.14,WSW,255,0.0,4.0,33,0.00,,,0.00,Wunderground v.1.15,2013-02-02 21:40:00,
2013-02-02 16:50:00,46.4,19.5,30.13,WSW,242,0.0,4.0,34,0.00,,,0.00,Wunderground v.1.15,2013-02-02 21:50:00,
2013-02-02 16:55:00,46.3,19.4,30.13,SW,227,0.0,4.0,34,0.00,,,0.00,Wunderground v.1.15,2013-02-02 21:55:00,
2013-02-02 17:00:00,46.2,19.3,30.13,South,188,0.0,4.0,34,0.00,,,0.00,Wunderground v.1.15,2013-02-02 22:00:00,
2013-02-02 17:05:00,46.2,19.3,30.12,South,189,0.0,4.0,34,0.00,,,0.00,Wunderground v.1.15,2013-02-02 22:05:00,
2013-02-02 17:10:00,46.1,19.9,30.12,South,169,0.0,4.0,35,0.00,,,0.00,Wunderground v.1.15,2013-02-02 22:10:00,
2013-02-02 17:15:00,46.1,19.9,30.12,South,169,0.0,4.0,35,0.00,,,0.00,Wunderground v.1.15,2013-02-02 22:15:00,
2013-02-02 17:20:00,46.1,20.6,30.12,South,169,0.0,4.0,36,0.00,,,0.00,Wunderground v.1.15,2013-02-02 22:20:00,
2013-02-02 17:25:00,46.0,20.5,30.12,South,169,0.0,4.0,36,0.00,,,0.00,Wunderground v.1.15,2013-02-02 22:25:00,
2013-02-02 17:30:00,46.0,20.5,30.12,South,169,0.0,4.0,36,0.00,,,0.00,Wunderground v.1.15,2013-02-02 22:30:00,
2013-02-02 17:35:00,45.9,21.1,30.12,South,169,0.0,4.0,37,0.00,,,0.00,Wunderground v.1.15,2013-02-02 22:35:00,
2013-02-02 17:40:00,45.8,21.0,30.12,South,169,0.0,4.0,37,0.00,,,0.00,Wunderground v.1.15,2013-02-02 22:40:00,
2013-02-02 17:45:00,45.6,21.4,30.12,South,169,0.0,4.0,38,0.00,,,0.00,Wunderground v.1.15,2013-02-02 22:45:00,
2013-02-02 17:55:00,45.0,22.1,30.10,South,169,0.0,4.0,40,0.00,,,0.00,Wunderground v.1.15,2013-02-02 22:55:00,
2013-02-02 18:00:00,44.8,22.5,30.10,South,169,0.0,4.0,41,0.00,,,0.00,Wunderground v.1.15,2013-02-02 23:00:00,
2013-02-02 18:05:00,44.5,22.8,30.10,South,169,0.0,4.0,42,0.00,,,0.00,Wunderground v.1.15,2013-02-02 23:05:00,
2013-02-02 18:10:00,44.2,22.5,30.09,South,169,0.0,4.0,42,0.00,,,0.00,Wunderground v.1.15,2013-02-02 23:10:00,
2013-02-02 18:15:00,43.9,23.4,30.09,South,169,0.0,4.0,44,0.00,,,0.00,Wunderground v.1.15,2013-02-02 23:15:00,
2013-02-02 18:25:00,43.3,23.4,30.09,South,169,0.0,4.0,45,0.00,,,0.00,Wunderground v.1.15,2013-02-02 23:25:00,
2013-02-02 18:30:00,43.1,23.2,30.09,South,169,0.0,4.0,45,0.00,,,0.00,Wunderground v.1.15,2013-02-02 23:30:00,
2013-02-02 18:35:00,42.9,23.0,30.09,South,169,0.0,4.0,45,0.00,,,0.00,Wunderground v.1.15,2013-02-02 23:35:00,
2013-02-02 18:45:00,42.5,23.7,30.09,South,169,0.0,4.0,47,0.00,,,0.00,Wunderground v.1.15,2013-02-02 23:45:00,
2013-02-02 18:55:00,42.2,23.4,30.08,South,169,0.0,4.0,47,0.00,,,0.00,Wunderground v.1.15,2013-02-02 23:55:00,
2013-02-02 19:00:00,42.0,23.2,30.08,South,169,0.0,4.0,47,0.00,,,0.00,Wunderground v.1.15,2013-02-03 00:00:00,
2013-02-02 19:05:00,41.9,23.1,30.08,South,170,0.0,4.0,47,0.00,,,0.00,Wunderground v.1.15,2013-02-03 00:05:00,
2013-02-02 19:10:00,41.8,23.0,30.08,South,170,0.0,4.0,47,0.00,,,0.00,Wunderground v.1.15,2013-02-03 00:10:00,
2013-02-02 19:15:00,41.8,23.0,30.08,South,170,0.0,4.0,47,0.00,,,0.00,Wunderground v.1.15,2013-02-03 00:15:00,
2013-02-02 19:20:00,41.7,22.9,30.08,South,170,0.0,4.0,47,0.00,,,0.00,Wunderground v.1.15,2013-02-03 00:20:00,
2013-02-02 19:30:00,41.5,23.2,30.08,South,171,0.0,4.0,48,0.00,,,0.00,Wunderground v.1.15,2013-02-03 00:30:00,
2013-02-02 19:35:00,41.4,24.1,30.07,South,171,0.0,4.0,50,0.00,,,0.00,Wunderground v.1.15,2013-02-03 00:35:00,
2013-02-02 19:40:00,41.3,25.0,30.07,South,171,0.0,4.0,52,0.00,,,0.00,Wunderground v.1.15,2013-02-03 00:40:00,
2013-02-02 19:45:00,41.2,24.4,30.07,South,171,0.0,4.0,51,0.00,,,0.00,Wunderground v.1.15,2013-02-03 00:45:00,
2013-02-02 19:50:00,41.1,24.3,30.07,South,171,0.0,4.0,51,0.00,,,0.00,Wunderground v.1.15,2013-02-03 00:50:00,
2013-02-02 20:00:00,40.9,25.1,30.06,South,171,0.0,4.0,53,0.00,,,0.00,Wunderground v.1.15,2013-02-03 01:00:00,
2013-02-02 20:05:00,40.7,24.0,30.06,South,171,0.0,4.0,51,0.00,,,0.00,Wunderground v.1.15,2013-02-03 01:05:00,
2013-02-02 20:10:00,40.7,24.4,30.06,South,171,0.0,4.0,52,0.00,,,0.00,Wunderground v.1.15,2013-02-03 01:10:00,
2013-02-02 20:15:00,40.6,24.3,30.06,South,171,0.0,4.0,52,0.00,,,0.00,Wunderground v.1.15,2013-02-03 01:15:00,
2013-02-02 20:20:00,40.5,24.7,30.06,South,171,0.0,4.0,53,0.00,,,0.00,Wunderground v.1.15,2013-02-03 01:20:00,
2013-02-02 20:35:00,40.6,25.7,30.06,South,171,0.0,0.0,55,0.00,,,0.00,Wunderground v.1.15,2013-02-03 01:35:00,
2013-02-02 20:40:00,40.7,26.6,30.06,South,171,0.0,0.0,57,0.00,,,0.00,Wunderground v.1.15,2013-02-03 01:40:00,
2013-02-02 20:45:00,40.8,27.2,30.06,South,171,0.0,0.0,58,0.00,,,0.00,Wunderground v.1.15,2013-02-03 01:45:00,
2013-02-02 20:50:00,40.9,27.7,30.06,South,171,0.0,0.0,59,0.00,,,0.00,Wunderground v.1.15,2013-02-03 01:50:00,
2013-02-02 20:55:00,41.1,29.1,30.06,South,171,0.0,0.0,62,0.00,,,0.00,Wunderground v.1.15,2013-02-03 01:55:00,
2013-02-02 21:05:00,41.5,30.6,30.07,South,175,0.0,0.0,65,0.00,,,0.00,Wunderground v.1.15,2013-02-03 02:05:00,
2013-02-02 21:10:00,41.7,31.2,30.06,South,174,0.0,0.0,66,0.00,,,0.00,Wunderground v.1.15,2013-02-03 02:10:00,
2013-02-02 21:15:00,41.9,31.7,30.07,South,174,0.0,0.0,67,0.00,,,0.00,Wunderground v.1.15,2013-02-03 02:15:00,
2013-02-02 21:20:00,42.2,32.4,30.06,South,174,0.0,0.0,68,0.00,,,0.00,Wunderground v.1.15,2013-02-03 02:20:00,
2013-02-02 21:25:00,42.4,32.6,30.07,SW,219,0.0,0.0,68,0.00,,,0.00,Wunderground v.1.15,2013-02-03 02:25:00,
2013-02-02 21:30:00,42.8,32.6,30.07,SSE,159,0.0,0.0,67,0.00,,,0.00,Wunderground v.1.15,2013-02-03 02:30:00,
2013-02-02 21:40:00,43.6,33.4,30.07,WSW,237,0.0,1.0,67,0.00,,,0.00,Wunderground v.1.15,2013-02-03 02:40:00,
2013-02-02 21:45:00,43.9,34.0,30.07,SSE,167,0.0,1.0,68,0.00,,,0.00,Wunderground v.1.15,2013-02-03 02:45:00,
2013-02-02 21:50:00,44.1,34.2,30.07,SSE,163,1.0,1.0,68,0.00,,,0.00,Wunderground v.1.15,2013-02-03 02:50:00,
2013-02-02 21:55:00,44.2,34.7,30.07,SSE,160,1.0,1.0,69,0.00,,,0.00,Wunderground v.1.15,2013-02-03 02:55:00,
2013-02-02 22:00:00,44.2,35.0,30.07,SE,128,0.0,0.0,70,0.00,,,0.00,Wunderground v.1.15,2013-02-03 03:00:00,
2013-02-02 22:05:00,44.1,35.3,30.07,SE,138,0.0,0.0,71,0.00,,,0.00,Wunderground v.1.15,2013-02-03 03:05:00,
2013-02-02 22:10:00,43.9,35.5,30.06,SSE,160,0.0,0.0,72,0.00,,,0.00,Wunderground v.1.15,2013-02-03 03:10:00,
2013-02-02 22:20:00,43.6,35.9,30.06,ESE,111,0.0,0.0,74,0.00,,,0.00,Wunderground v.1.15,2013-02-03 03:20:00,
2013-02-02 22:25:00,43.5,36.1,30.06,NE,46,0.0,0.0,75,0.00,,,0.00,Wunderground v.1.15,2013-02-03 03:25:00,
2013-02-02 22:30:00,43.3,36.2,30.06,SSW,211,0.0,0.0,76,0.00,,,0.00,Wunderground v.1.15,2013-02-03 03:30:00,
2013-02-02 22:40:00,43.1,36.7,30.06,SSW,213,0.0,0.0,78,0.00,,,0.00,Wunderground v.1.15,2013-02-03 03:40:00,
2013-02-02 22:45:00,42.9,36.5,30.06,ESE,120,0.0,0.0,78,0.00,,,0.00,Wunderground v.1.15,2013-02-03 03:45:00,
2013-02-02 22:50:00,42.9,36.8,30.06,ESE,120,0.0,0.0,79,0.00,,,0.00,Wunderground v.1.15,2013-02-03 03:50:00,
2013-02-02 22:55:00,42.7,37.0,30.06,ESE,123,0.0,0.0,80,0.00,,,0.00,Wunderground v.1.15,2013-02-03 03:55:00,
2013-02-02 23:00:00,42.6,36.9,30.06,SSW,193,0.0,0.0,80,0.00,,,0.00,Wunderground v.1.15,2013-02-03 04:00:00,
2013-02-02 23:05:00,42.5,37.1,30.06,South,175,0.0,0.0,81,0.00,,,0.00,Wunderground v.1.15,2013-02-03 04:05:00,
2013-02-02 23:10:00,42.3,36.9,30.06,South,184,0.0,0.0,81,0.00,,,0.00,Wunderground v.1.15,2013-02-03 04:10:00,
2013-02-02 23:15:00,42.2,37.1,30.05,East,92,0.0,1.0,82,0.00,,,0.00,Wunderground v.1.15,2013-02-03 04:15:00,
2013-02-02 23:20:00,42.1,37.0,30.05,SE,129,0.0,0.0,82,0.00,,,0.00,Wunderground v.1.15,2013-02-03 04:20:00,
2013-02-02 23:25:00,42.0,36.9,30.05,SE,134,0.0,0.0,82,0.00,,,0.00,Wunderground v.1.15,2013-02-03 04:25:00,
2013-02-02 23:30:00,42.0,37.2,30.05,SE,144,0.0,0.0,83,0.00,,,0.00,Wunderground v.1.15,2013-02-03 04:30:00,
2013-02-02 23:35:00,41.9,37.1,30.05,SE,144,0.0,0.0,83,0.00,,,0.00,Wunderground v.1.15,2013-02-03 04:35:00,
2013-02-02 23:45:00,41.8,37.0,30.04,NW,304,0.0,0.0,83,0.00,,,0.00,Wunderground v.1.15,2013-02-03 04:45:00,
2013-02-02 23:50:00,41.7,37.2,30.03,NNW,334,0.0,0.0,84,0.00,,,0.00,Wunderground v.1.15,2013-02-03 04:50:00,
2013-02-02 23:55:00,41.6,37.1,30.03,NNW,335,0.0,0.0,84,0.00,,,0.00,Wunderground v.1.15,2013-02-03 04:55:00,